Home   Weather   Zermatt   Past weeks

Flag for Switzerland Past Weather in Zermatt, Valais, Switzerland — Yesterday and Last 2 Weeks

Now
14 °F

Sunny.


Feels Like: 8 °F
Forecast: -2 / 20 °F
Wind: 3 mph from Northeast

Location: Sion

Current Time: Jan 18, 2017 at 11:31:39 am

Latest Report: Jan 18, 2017 at 10:00 am


Visibility: 22 mi

Pressure: 30.46 "Hg (24.73 "Hg at 1604m altitude)

Humidity: 84%

Dew Point: 10 °F

Location of ZermattLocation

Past Weather in Zermatt — Graph

°F

Zermatt Temperature Yesterday

Maximum temperature yesterday: 25 °F (at 3:00 pm)
Minimum temperature yesterday: 12 °F (at 8:00 am)
Average temperature yesterday: 17 °F

High & Low Weather Summary for the Past Weeks

 TemperatureHumidityPressure
High40 °F (Jan 13, 4:00 am)98% (Jan 13, 12:00 am)30.69 "Hg (Jan 13, 12:00 am)
Low11 °F (Jan 18, 6:00 am)45% (Jan 17, 4:00 pm)29.70 "Hg (Jan 13, 4:00 am)
Average27 °F79%30.26 "Hg
* Reported Jan 3 10:00 am — Jan 18 10:00 am, Zermatt, Weather by CustomWeather, © 2017

Note: Actual official high and low records may vary slightly from our data, if they occured in-between our weather recording intervals... More about our weather records

Advertising

Zermatt Weather History for the Previous 24 Hours

Scroll right to see more
 ConditionsComfort  
Time TempWeatherWind HumidityBarometerVisibility
10:00 am
Wed, Jan 18
14 °FSunny.3 mph84%30.46 "Hg22 mi
9:00 am13 °FCold.2 mph85%30.45 "HgN/A
8:00 am11 °FCold.1 mph88%30.44 "HgN/A
7:00 am12 °FClear.1 mph85%30.42 "Hg19 mi
6:00 am11 °FCold.2 mph85%30.40 "HgN/A
5:00 am11 °FCold.1 mph86%30.40 "HgN/A
4:00 am12 °FClear.3 mph84%30.40 "Hg12 mi
3:00 am14 °FCold.2 mph83%30.40 "HgN/A
2:00 am15 °FCold.2 mph80%30.39 "HgN/A
1:00 am15 °FClear.3 mph80%30.39 "Hg12 mi
12:00 am16 °FCold.2 mph77%30.39 "HgN/A
11:00 pm
Tue, Jan 17
17 °FCold.3 mph75%30.38 "HgN/A
10:00 pm17 °FClear.3 mph74%30.37 "Hg19 mi
9:00 pm17 °FCold.3 mph71%30.36 "HgN/A
8:00 pm18 °FCold.3 mph70%30.34 "HgN/A
7:00 pm19 °FClear.2 mph70%30.32 "Hg22 mi
6:00 pm19 °FCold.1 mph66%30.30 "HgN/A
5:00 pm23 °FCold.2 mph58%30.27 "HgN/A
4:00 pm24 °FSunny.2 mph45%30.25 "Hg25 mi
3:00 pm25 °FChilly.5 mph48%30.24 "HgN/A
2:00 pm24 °FCold.5 mph51%30.25 "HgN/A
1:00 pm22 °FSunny.1 mph50%30.28 "Hg22 mi
12:00 pm20 °FCold.3 mph64%30.31 "HgN/A
11:00 am16 °FCold.2 mph73%30.35 "HgN/A
Weather by CustomWeather, © 2017

See weather overviewHow to use our weather pages